Погода в Червоне Дибровке

Россия / Белгородская область     50°31′33″N   37°17′03″E
темп.,
°C
ветер,
м/с
пор.,
м/с
влажн.,
%
обл.,
%
осадки,
мм/ч
давл.,
гПа
погр.,
м
17 октября, вс
вс1700:00+11ссз1149100 0.0 101810
03:00+10с2451100 0.0 1018105
06:00+10с235687 0.0 101885
09:00+10ссв345787 0.0 1018212
12:00+14с114814 0.0 1017707
15:00+15сз3349100 0.0 10161132
18:00+11ссз34615 0.0 101745
21:00+9ссз346912 0.0 101764
18 октября, пн
пн1800:00+7ссз337264 0.0 101754
03:00+5сз33805 0.0 101863
06:00+4сз239197 0.0 101848
09:00+7зсз3471100 0.0 1018231
12:00+10з455099 0.0 10171125
15:00+11зсз454499 0.0 10161378
18:00+9зсз4752100 0.0 1016331
21:00+8з4858100 0.0 1016483
19 октября, вт
вт1900:00+7з5774100 0.1 1016927
03:00+7з4678100 0.3 1015997
06:00+6зсз5681100 0.1 1015965
09:00+5с468393 0.7 1016554
12:00+9ссз674883 0.1 10171768
15:00+9сз78365 0.1 10172003
18:00+6сз610575 0.0 1019651
21:00+4сз596447 0.0 1021694
20 октября, ср
ср2000:00+3сз5106951 0.0 1022473
03:00+2сз511785 0.0 1024499
06:000сз37947 0.0 1025229
09:00+2сз467644 0.0 1027458
12:00+6сз455487 0.0 10271212
15:00+6сз454658 0.0 10261408
18:00+4сз226098 0.0 102731
21:00+3ю116562 0.0 102610
21 октября, чт
чт2100:00+2ююз22689 0.0 102624
03:00+1ююз3367100 0.0 102666
06:00+1ююз31069100 0.0 1025219
09:00+4ююз5125875 0.0 1024416
12:00+9юз8113943 0.0 1022788
15:00+11юз71133100 0.0 1020961
18:00+9ююз61438100 0.0 1019468
21:00+8ююз61648100 0.0 1017516